Regional Weather Roundup
Issued by NWS

Home | Current Version | Previous Version | Graphics & Text | Print | Product List | Glossary On
Versions: 1 2 3 4 5 6 7 8 9 10 11 12 13 14 15 16 17 18 19 20 21 22 23 24 25 26 27
000
ASUS45 KTFX 191010
RWRMT
MONTANA REGIONAL WEATHER ROUNDUP
NATIONAL WEATHER SERVICE GREAT FALLS MT
400 AM MDT THU OCT 19 2017

NOTE: "FAIR" INDICATES FEW OR NO CLOUDS BELOW 12000 FEET WITH NO
SIGNIFICANT WEATHER AND/OR OBSTRUCTIONS TO VISIBILITY.

MTZ001>007-043-191100-
WEST OF THE DIVIDE

CITY           SKY/WX    TMP DP  RH WIND       PRES   REMARKS
KALISPELL      CLOUDY    53  40  61 S7        29.65F
MISSOULA       CLEAR     36  33  89 CALM      29.76F
BUTTE          CLOUDY    36  27  69 CALM      29.90F
MULLAN PASS    CLOUDY    45  26  47 SW12G22   29.77F
ANACONDA         N/A     55  19  24 S16       29.85F
DEER LODGE       N/A     45  25  45 S3        29.85F
EUREKA           N/A     57  36  44 MISG      29.61S
HAMILTON         N/A     55  25  30 S12       29.77F
LIBBY            N/A     63  30  29 SE7       29.59F
PLAINS           N/A     34  29  82 CALM      29.74F
THOMPSON FALLS   N/A     39  38  97 CALM      29.78F VSB 0
$$

MTZ008-052>055-191100-
SOUTHWEST MONTANA

CITY           SKY/WX    TMP DP  RH WIND       PRES   REMARKS
BOZEMAN        CLOUDY    43  28  55 S8        29.87F
DILLON         CLOUDY    42  21  43 CALM      29.91F
W YELLOWSTONE  CLOUDY    27  21  80 CALM      30.09S
ENNIS          CLOUDY    55  19  24 S16G24    29.99S
$$

MTZ009-010-012-014-046-048-049-054-191100-
EAST SLOPES AND CENTRAL MONTANA

CITY           SKY/WX    TMP DP  RH WIND       PRES   REMARKS
CUT BANK       CLOUDY    57  24  28 SW25G31   29.58F
GREAT FALLS    CLOUDY    60  20  21 SW20      29.68F
MALMSTROM AFB  CLOUDY    56  23  28 S20       29.68F
HELENA         CLOUDY    41  32  70 N6        29.77F
BOWMANS CRNR     N/A     55  21  27 S28       29.67F
CHOTEAU          N/A     59  21  23 SW17G24   29.66F
FAIRFIELD        N/A     56  22  27 S14       29.66F
POWER            N/A     55  22  27 SW20      29.66F
RAYNESFORD       N/A     61  21  21 W5        29.73S
ULM              N/A     63  21  20 SE8G21    29.70F
$$

MTZ011-013-016-021-045-047-050-051-191100-
NORTH CENTRAL MONTANA

CITY           SKY/WX    TMP DP  RH WIND       PRES   REMARKS
HAVRE          CLOUDY    63  30  28 SW18G25   29.60F
LEWISTOWN      CLOUDY    59  26  28 SW17      29.75F
N BAR RANCH      N/A     52  27  37 NW7       29.81F
CHINOOK          N/A     64  28  25 SW6       29.61F
DENTON           N/A     59  25  27 S12       29.69F
GEYSER           N/A     56  22  26 SW13      29.73S
GRASS RANGE      N/A     63  25  24 W16G25    29.73S
JUDITH GAP       N/A     56  26  30 SW14      29.81F
WINIFRED         N/A     59  27  29 SW12      29.72R
$$

MTZ017>020-022>027-061-062-191100-
NORTHEAST MONTANA

CITY           SKY/WX    TMP DP  RH WIND       PRES   REMARKS
GLASGOW        CLOUDY    45  36  70 SE12      29.67F
JORDAN           N/A     53  31  42 SW8       29.72S
SIDNEY         CLEAR     36  30  79 S8        29.74F WCI  30
WOLF POINT     PTCLDY    38  27  64 CALM      29.70F
MALTA          CLEAR     45  34  65 W9        29.65S
PLENTYWOOD       N/A     39  27  60 CALM      29.70F
POPLAR           N/A     45  27  49 CALM      29.71F
SCOBEY           N/A     43  23  45 S1        29.67F
$$

MTZ028>42-056>058-191100-
SOUTHCENTRAL AND SOUTHEAST MONTANA

CITY           SKY/WX    TMP DP  RH WIND       PRES   REMARKS
BAKER          CLOUDY    36  29  75 CALM      29.81F
BILLINGS       CLOUDY    57  27  31 W10       29.82F
LIVINGSTON     CLOUDY    59  23  25 S25G32    29.85S
MILES CITY     PTCLDY    45  33  63 S13       29.77F
BIG TIMBER     CLEAR     59  19  21 W17G26    29.85F
EKALAKA          N/A     60  18  19 S3        29.83F
FORSYTH          N/A     45  30  57 CALM      29.77F
HARLOWTON        N/A     54  26  33 MISG      29.81F
LAUREL           N/A     55  25  30 SW13      29.82F
$$

REGIONAL REPORTS...DAKOTAS

CITY           SKY/WX    TMP DP  RH WIND       PRES   REMARKS
WILLISTON      CLOUDY    42  28  57 S5        29.73F
MINOT          CLOUDY    40  28  62 SE6       29.76F
DICKINSON      CLOUDY    41  26  55 S8        29.77F
BEACH            N/A     39  28  65 S9        29.81S
CROSBY           N/A     43  27  52 S16       29.70F
TIOGA            N/A     43  28  56 CALM      29.76S
WATFORD CITY     N/A     36  28  75 CALM      29.75S
BISMARCK       CLOUDY    38  28  67 E7        29.83F
GRAND FORKS    CLOUDY    35  26  69 SW5       29.90S
FARGO          CLOUDY    39  29  67 S7        29.93F
BUFFALO SD       N/A     45  26  47 CALM      29.77F
RAPID CITY     CLOUDY    48  28  46 S10       29.89F
$$

REGIONAL REPORTS...WYOMING/IDAHO/WASHINGTON

CITY           SKY/WX    TMP DP  RH WIND       PRES   REMARKS
GILLETTE       CLOUDY    55  19  24 SW15      29.89F
SHERIDAN       CLOUDY    40  29  64 SW8       29.87F
BUFFALO WY     CLOUDY    55  14  19 W7        29.93F
CODY           CLOUDY    55  20  25 E5        29.97F
YELLOWSTONE LA   N/A     26  24  92 CALM      30.14F
IDAHO FALLS    CLOUDY    33  27  78 N3        30.01F
SALMON         CLOUDY    36  28  73 CALM      29.90F
BOISE          PTCLDY    51  29  42 SE13      29.85S
SPOKANE        CLOUDY    55  42  61 S15G23    29.64F
$$

REGIONAL REPORTS...ALBERTA

CITY           SKY/WX    TMP DP  RH WIND       PRES   REMARKS
EDMONTON       CLEAR     37  28  70 CALM      29.29R
CALGARY        MOCLDY    52  34  50 W6        29.29F
LETHBRIDGE     CLEAR     57  36  44 SW31G41   29.46F
MEDICINE HAT   PTCLDY    59  36  41 S17       29.50F
$$

REGIONAL REPORTS...SASKATCHEWAN

CITY           SKY/WX    TMP DP  RH WIND       PRES   REMARKS
SWIFT CURRENT  CLOUDY    55  36  47 SW24G31   29.52F
REGINA         PTCLDY    36  19  51 SE14      29.61F WCI  27
SASKATOON      CLOUDY    41  23  48 SE12      29.47F
$$




USA.gov is the U.S. government's official web portal to all federal, state and local government web resources and services.